Regional Weather Roundup
Issued by NWS

Home | Current Version | Previous Version | Graphics & Text | Print | Product List | Glossary On
Versions: 1 2 3 4 5 6 7 8 9 10 11 12 13 14 15 16 17 18 19 20 21 22 23 24 25 26 27 28 29 30 31 32 33 34 35 36 37 38 39 40 41 42 43 44 45 46 47 48 49 50
000
ASUS43 KMKX 221800
RWRWI

WISCONSIN REGIONAL WEATHER ROUNDUP
NATIONAL WEATHER SERVICE MILWAUKEE/SULLIVAN WI
100 PM CDT TUE APR 22 2014

NOTE: "FAIR" INDICATES FEW OR NO CLOUDS BELOW 12,000 FEET WITH NO
SIGNIFICANT WEATHER AND/OR OBSTRUCTIONS TO VISIBILITY.

WIZ001-002-006>008-014>016-023>028-221900-
NORTHWEST WISCONSIN

CITY           SKY/WX    TMP DP  RH WIND       PRES   REMARKS
SUPERIOR ARPT  FAIR      49  26  41 N10       30.11F
ASHLAND        CLOUDY    43  26  51 NE5       30.10F
6HR MIN TEMP:  36; 6HR MAX TEMP:  44;

HAYWARD        FAIR      48  21  34 N10G20    30.08S
6HR MIN TEMP:  33; 6HR MAX TEMP:  48;

SIREN          FAIR      48  21  34 NW10G18   30.11F
RICE LAKE      FAIR      48  21  35 NW13G18   30.10S
LADYSMITH      FAIR      48  27  44 NW13G20   30.07S
EAU CLAIRE     NOT AVBL
MENOMONIE      FAIR      51  24  34 NW13      30.08F
NEW RICHMOND   FAIR      50  29  43 N14G20    30.10F
OSCEOLA        FAIR      51  29  42 N15G22    30.13F
$$

WIZ003>005-009-010-017-018-221900-
NORTH CENTRAL WISCONSIN

CITY           SKY/WX    TMP DP  RH WIND       PRES   REMARKS
WOODRUFF       CLOUDY    42  26  53 NW18      30.03S
RHINELANDER    CLOUDY    38  22  52 N12G21    30.03R WCI  30
6HR MIN TEMP:  34; 6HR MAX TEMP:  39;

EAGLE RIVER    CLOUDY    37  23  56 NW15G22   30.01S WCI  28
LAND O LAKES   CLOUDY    37  26  64 NW14G20   30.02R WCI  28
PHILLIPS       PTSUNNY   44  24  46 N14       30.04S
TOMAHAWK       PTSUNNY   42  23  46 NW14G22   30.03S
MEDFORD        FAIR      46  28  50 NW15G21   30.02S
MERRILL        PTSUNNY   44  24  46 N16G26    30.01S
$$

WIZ029-030-035-036-043>047-221900-
CENTRAL WISCONSIN

CITY           SKY/WX    TMP DP  RH WIND       PRES   REMARKS
WAUSAU         FAIR      47  23  38 N9G21     29.99S
6HR MIN TEMP:  38; 6HR MAX TEMP:  48;

MOSINEE        NOT AVBL
MARSHFIELD     FAIR      50  29  44 NW15G24   30.01F
6HR MIN TEMP:  35; 6HR MAX TEMP:  50;

STEVENS POINT  FAIR      47  24  41 NW15      30.01S
WAUPACA        NOT AVBL
WAUTOMA        NOT AVBL
WISC RAPIDS    FAIR      50  26  39 NW14G24   30.02F
6HR MIN TEMP:  37; 6HR MAX TEMP:  51;

CAMP DOUGLAS   NOT AVBL
$$

WIZ011>013-019>022-031-037>040-048>050-221900-
NORTHEAST WISCONSIN

CITY           SKY/WX    TMP DP  RH WIND       PRES   REMARKS
ANTIGO         PTSUNNY   39  26  58 N18G25    30.00S WCI  30
STURGEON BAY   CLOUDY    45  28  53 NW16G23   29.96R
6HR MIN TEMP:  37; 6HR MAX TEMP:  45;

GREEN BAY      PTSUNNY   47  31  53 N20G25    29.98R
6HR MIN TEMP:  39; 6HR MAX TEMP:  48;

MANITOWOC      NOT AVBL
APPLETON       PTSUNNY   48  27  43 NW18G25     N/A
CLINTONVILLE   MOSUNNY   46  27  46 N10G23    29.99S
OSHKOSH        SUNNY     51  30  44 NW17G26   29.97S
$$

WIZ032>034-041-042-053>061-221900-
SOUTHWEST WISCONSIN

CITY           SKY/WX    TMP DP  RH WIND       PRES   REMARKS
LA CROSSE      FAIR      55  28  35 NW13      30.05F
6HR MIN TEMP:  40; 6HR MAX TEMP:  55;

SPARTA         FAIR      52  24  33 NW12G23   30.05F
VIROQUA        FAIR      50  30  46 NW18      30.04F
BOSCOBEL       FAIR      55  27  34 VRB7G20   30.05F
6HR MIN TEMP:  42; 6HR MAX TEMP:  56;

PRAIRIE DU CHI FAIR      55  27  34 NW8G20    30.06F
PLATTEVILLE    FAIR      54  28  36 W15       30.04S
$$

WIZ056-057-062-063-064-067-068-221900-
SOUTH CENTRAL WISCONSIN

CITY           SKY/WX    TMP DP  RH WIND       PRES   REMARKS
BARABOO/DELLS  FAIR      50  27  40 NW10G16   30.00F
LONE ROCK      NOT AVBL
WATERTOWN      MOSUNNY   51  33  48 NW13G20   29.98F
MADISON        FAIR      54  26  34 NW12G21   29.99F
6HR MIN TEMP:  40; 6HR MAX TEMP:  55;

MIDDLETON      FAIR      54  25  32 NW13G21   30.00F
MONROE         FAIR      55  26  32 NW13      29.99F
6HR MIN TEMP:  41; 6HR MAX TEMP:  55;

JANESVILLE     SUNNY     55  27  33 N14       29.98F
$$

WIZ051-052-058>065-066-070>072-221900-
SOUTHEAST WISCONSIN

CITY           SKY/WX    TMP DP  RH WIND       PRES   REMARKS
MILWAUKEE      MOSUNNY   54  30  40 W13G21    29.96F
6HR MIN TEMP:  42; 6HR MAX TEMP:  54;

WAUKESHA       MOSUNNY   50  30  46 NW12      29.98S
MILWAUKEE/TIMM SUNNY     54  28  37 NW14G21   29.96F
RACINE         MOSUNNY   54  33  45 NE9       29.97F
6HR MIN TEMP:  42; 6HR MAX TEMP:  56;

BURLINGTON     SUNNY     51  30  45 NW14G24   29.97F
KENOSHA        SUNNY     55  31  39 NW14G22   29.96F
6HR MIN TEMP:  41; 6HR MAX TEMP:  55;

FOND DU LAC    PTSUNNY   51  30  44 NW16G33   29.97S
6HR MIN TEMP:  39; 6HR MAX TEMP:  52;

SHEBOYGAN      PTSUNNY   50  31  48 NW13      29.96R
6HR MIN TEMP:  40; 6HR MAX TEMP:  51;

WEST BEND      SUNNY     50  28  43 NW16G25   29.96F
JUNEAU         MOSUNNY   50  25  38 NW9G21    29.98F
$$

LSZ147-162-221900-
LAKE SUPERIOR

STATION/POSITION TIME  TEMP    WIND        PRES    WAVE
                       AIR SEA DIR/SP/G            HT/PER
                 (UTC) (F)     (DEG/KT/KT) (MB)    (FT/S)
DEVILS ISLAND    1700   40     270/  3/  5 1019.8F
PORT WING        1700   41     260/  8/ 10 1019.6S
SAXON HARBOR     1700          310/  5/  7 1019.6R
$$

LMZ867-665-643>646-221900-
LAKE MICHIGAN

STATION/POSITION TIME  TEMP    WIND        PRES    WAVE
                       AIR SEA DIR/SP/G            HT/PER
                 (UTC) (F)     (DEG/KT/KT) (MB)    (FT/S)
NORTHPORT PIER   1700   36     320/  9/ 11 1013.9R
SISTER BAY       1709   41     350/ 13/ 15   N/A
KEWAUNEE LAKESHO 1700   46     320/ 14/ 20 1014.6R
SHEBOYGAN LAKESH 1700   48     330/ 17/ 20 1014.7R
PORT WASHINGTON  1740   51     320/  9/ 18 1015.2S
MILWAUKEE LAKESH 1700   49     320/ 10/ 14   N/A
KENOSHA   LAKESH 1700   49     330/ 10/ 17   N/A
$$

TC  - TEMPERATURE IN CELSIUS
VSB - VISIBILITY IN STATUTE MILES
WCI - WIND CHILL INDEX
HX  - HEAT INDEX




USA.gov is the U.S. government's official web portal to all federal, state and local government web resources and services.